User: anonymous   Login
Location: Unspecified
(0.0000°N, 0.0000°E)
Time: 11:51:06
(UTC+00:00)
Language:

AALTO 1 - Orbit

View from above orbital plane
View from above orbital plane
View from above satellite
View from above satellite

Ground track
Ground track

The orbit data is extracted from the following two-line orbital elements,

1 42775U 17036L   18168.82267695 +.00000592 +00000-0 +29963-4 0  9990
2 42775 097.4001 228.1492 0015794 065.7178 294.5705 15.20751797054595
Epoch (UTC): 17 June 2018 19:44:39
Eccentricity: 0.0015794
inclination: 97.4001°
perigee height: 493 km
apogee height: 514 km
right ascension of ascending node: 228.1492°
argument of perigee: 65.7178°
revolutions per day: 15.20751797
mean anomaly at epoch: 294.5705°
orbit number at epoch: 5459

The dashed part of the orbit path shows where the satellite is in the earth's shadow,  

DLR